ギブス彗星

C/2011 C3 ( Gibbs )

English version
Home page
Updated on September 3, 2011

---------------------------------------------------------------------

・ プロフィール

発見日 2011年2月12日
発見光度 19.8等
発見者 A. R. Gibbs (Mt. Lemmon)

・ 写真集

・ 軌道要素

Epoch 2011 Mar. 20.0 TT = JDT 2455640.5
T 2011 Apr. 7.52781 TT                                  MPC
q   1.5169006            (2000.0)            P               Q
z  +0.0030963      Peri.  206.80973     -0.72912827     +0.62858878
 +/-0.0000181      Node    20.89019     -0.40753222     -0.08108639
e   0.9953033      Incl.   49.37640     -0.54980857     -0.77349928
From 75 observations 2011 Feb. 12-May 15, mean residual 0".5.

・ 光度変化

        m1 = 16.5 + 5 logΔ + 10.0 log r

---------------------------------------------------------------------

軌道要素はM.P.E.C. 2011-M11に掲載されたものです。
光度グラフはComet for Windowsで作成したものです。

---------------------------------------------------------------------

Copyright(C) Seiichi Yoshida (comet@aerith.net). All rights reserved.